Location: Te Maire Creek
(41.1333°S, 175.9167°E)
Time: 01:38:58
(UTC+00:00)

CZ-2D R/B - Pass Details

Date: 19 May 2024
Orbit: 480 x 494 km, 97.4° (Epoch: 18 June)

Event Time Altitude Azimuth Distance (km) Brightness Sun altitude
Rises 17:03:20 0° 19° (NNE) 2,542 7.0 -25.9°
Reaches altitude 10° 17:05:23 10° 21° (NNE) 1,669 6.1 -25.5°
Enters shadow 17:07:38 36° 32° (NNE) 790 4.3 -25.1°
